When you browse on this site, cookies collect data to enhance your experience and personalize the content and advertising you see.
Visit our Privacy Policy to learn more. By continuing to use the site, you agree to this use of cookies and data.
  • En España
  • Lista de países
  • Para 7 días
  • Temperatura del agua
  • Mapa Satelital
  • El tiempo en el mapa
  • Informadores
  • user-avatar
    Iniciar sesión

    Tiempo cada hora Bolshoe Zagore

    Hoy, 19 Julio, Viernes

    Tiempo Temperatura Precipitaciones Viento Presión Humedad
    00:00 +13°C° 1.4 mm 4 mps 736 mmHg 97%
    01:00 +13°C° 1.4 mm 4 mps 736 mmHg 97%
    02:00 +13°C° 1.4 mm 4 mps 736 mmHg 97%
    03:00 +13°C° 0.4 mm 4 mps 737 mmHg 97%
    04:00 +13°C° 0.4 mm 4 mps 737 mmHg 97%
    05:00 +13°C° 0.4 mm 4 mps 737 mmHg 97%
    06:00 +14°C° 0.6 mm 4 mps 738 mmHg 97%
    07:00 +14°C° 0.6 mm 4 mps 738 mmHg 97%
    08:00 +14°C° 0.6 mm 4 mps 738 mmHg 96%
    09:00 +14°C° 0.4 mm 4 mps 739 mmHg 96%
    10:00 +14°C° 0.4 mm 5 mps 739 mmHg 95%
    11:00 +14°C° 0.4 mm 5 mps 739 mmHg 95%
    12:00 +15°C° 0.3 mm 5 mps 740 mmHg 91%
    13:00 +16°C° 0.3 mm 5 mps 740 mmHg 88%
    14:00 +16°C° 0.3 mm 5 mps 740 mmHg 85%
    15:00 +17°C° 0.1 mm 6 mps 740 mmHg 83%
    16:00 +17°C° 0.1 mm 6 mps 741 mmHg 81%
    17:00 +17°C° 0.1 mm 6 mps 741 mmHg 80%
    18:00 +16°C° 0 mm 5 mps 741 mmHg 81%
    19:00 +15°C° 0 mm 4 mps 741 mmHg 81%
    20:00 +14°C° 0 mm 4 mps 741 mmHg 82%
    21:00 +14°C° 0 mm 4 mps 742 mmHg 83%
    22:00 +14°C° 0 mm 4 mps 742 mmHg 84%
    23:00 +14°C° 0 mm 4 mps 742 mmHg 85%

    Mañana, 20 Julio, Sábado

    Tiempo Temperatura Precipitaciones Viento Presión Humedad
    00:00 +13°C° 0 mm 4 mps 742 mmHg 88%
    01:00 +13°C° 0 mm 3 mps 742 mmHg 91%
    02:00 +12°C° 0 mm 3 mps 743 mmHg 94%
    03:00 +12°C° 0 mm 3 mps 743 mmHg 94%
    04:00 +12°C° 0 mm 3 mps 743 mmHg 94%
    05:00 +12°C° 0 mm 3 mps 743 mmHg 94%
    06:00 +13°C° 0 mm 3 mps 744 mmHg 90%
    07:00 +16°C° 0 mm 3 mps 744 mmHg 86%
    08:00 +17°C° 0 mm 4 mps 744 mmHg 82%
    09:00 +18°C° 0.1 mm 4 mps 745 mmHg 80%
    10:00 +19°C° 0.1 mm 4 mps 745 mmHg 77%
    11:00 +20°C° 0.1 mm 4 mps 745 mmHg 75%
    12:00 +21°C° 0.5 mm 4 mps 745 mmHg 75%
    13:00 +21°C° 0.5 mm 5 mps 745 mmHg 74%
    14:00 +22°C° 0.5 mm 5 mps 745 mmHg 73%
    15:00 +22°C° 0.3 mm 4 mps 745 mmHg 74%
    16:00 +21°C° 0.3 mm 4 mps 745 mmHg 76%
    17:00 +21°C° 0.3 mm 3 mps 746 mmHg 77%
    18:00 +20°C° 0.1 mm 3 mps 746 mmHg 80%
    19:00 +18°C° 0.1 mm 3 mps 746 mmHg 83%
    20:00 +17°C° 0.1 mm 3 mps 746 mmHg 86%
    21:00 +16°C° 0 mm 2 mps 746 mmHg 87%
    22:00 +15°C° 0 mm 2 mps 746 mmHg 89%
    23:00 +14°C° 0 mm 2 mps 747 mmHg 90%

    Pasado mañana, 21 Julio, Domingo

    Tiempo Temperatura Precipitaciones Viento Presión Humedad
    00:00 +14°C° 0 mm 2 mps 747 mmHg 91%
    01:00 +14°C° 0 mm 2 mps 747 mmHg 91%
    02:00 +13°C° 0 mm 2 mps 747 mmHg 92%
    03:00 +13°C° 0 mm 2 mps 747 mmHg 92%
    04:00 +13°C° 0 mm 1 mps 747 mmHg 91%
    05:00 +13°C° 0 mm 1 mps 747 mmHg 91%
    06:00 +15°C° 0 mm 1 mps 747 mmHg 86%
    07:00 +18°C° 0 mm 1 mps 747 mmHg 80%
    08:00 +20°C° 0 mm 1 mps 747 mmHg 74%
    09:00 +20°C° 0 mm 2 mps 747 mmHg 70%
    10:00 +23°C° 0 mm 2 mps 747 mmHg 65%
    11:00 +24°C° 0 mm 2 mps 748 mmHg 61%
    12:00 +25°C° 0 mm 2 mps 747 mmHg 59%
    13:00 +25°C° 0 mm 3 mps 747 mmHg 58%
    14:00 +25°C° 0 mm 3 mps 747 mmHg 56%
    15:00 +25°C° 0 mm 2 mps 747 mmHg 58%
    16:00 +25°C° 0 mm 2 mps 747 mmHg 61%
    17:00 +25°C° 0 mm 2 mps 747 mmHg 63%
    18:00 +23°C° 0 mm 1 mps 747 mmHg 70%
    19:00 +21°C° 0 mm 1 mps 747 mmHg 76%
    20:00 +17°C° 0 mm 0 mps 747 mmHg 83%
    21:00 +16°C° 0 mm 0 mps 747 mmHg 84%
    22:00 +16°C° 0 mm 0 mps 747 mmHg 86%
    23:00 +15°C° 0 mm 0 mps 747 mmHg 87%

    22 Julio, Lunes

    Tiempo Temperatura Precipitaciones Viento Presión Humedad
    00:00 +16°C° 0 mm 1 mps 747 mmHg 88%
    01:00 +15°C° 0 mm 1 mps 746 mmHg 89%
    02:00 +15°C° 0 mm 1 mps 746 mmHg 89%
    03:00 +15°C° 0 mm 1 mps 746 mmHg 89%
    04:00 +15°C° 0 mm 1 mps 746 mmHg 89%
    05:00 +16°C° 0 mm 1 mps 746 mmHg 89%
    06:00 +17°C° 0 mm 2 mps 746 mmHg 85%
    07:00 +19°C° 0 mm 2 mps 745 mmHg 82%
    08:00 +20°C° 0 mm 2 mps 745 mmHg 78%
    09:00 +21°C° 0.8 mm 2 mps 745 mmHg 79%
    10:00 +23°C° 0.8 mm 2 mps 745 mmHg 80%
    11:00 +22°C° 0.8 mm 3 mps 745 mmHg 81%
    12:00 +23°C° 1 mm 2 mps 744 mmHg 83%
    13:00 +23°C° 1 mm 2 mps 744 mmHg 85%
    14:00 +22°C° 1 mm 1 mps 744 mmHg 86%
    15:00 +21°C° 0.5 mm 1 mps 744 mmHg 88%
    16:00 +20°C° 0.5 mm 1 mps 744 mmHg 91%
    17:00 +18°C° 0.5 mm 2 mps 743 mmHg 93%
    18:00 +18°C° 0.7 mm 2 mps 743 mmHg 94%
    19:00 +17°C° 0.7 mm 2 mps 743 mmHg 96%
    20:00 +17°C° 0.7 mm 2 mps 743 mmHg 98%
    21:00 +17°C° 0.8 mm 2 mps 743 mmHg 98%
    22:00 +17°C° 0.8 mm 2 mps 743 mmHg 98%
    23:00 +17°C° 0.8 mm 2 mps 743 mmHg 98%

    23 Julio, Martes

    Tiempo Temperatura Precipitaciones Viento Presión Humedad
    00:00 +17°C° 0.8 mm 2 mps 743 mmHg 98%
    01:00 +17°C° 0.8 mm 2 mps 743 mmHg 98%
    02:00 +17°C° 0.8 mm 2 mps 743 mmHg 98%
    03:00 +17°C° 0.9 mm 3 mps 743 mmHg 98%
    04:00 +16°C° 0.9 mm 3 mps 743 mmHg 98%
    05:00 +15°C° 0.9 mm 4 mps 743 mmHg 98%
    06:00 +15°C° 0.6 mm 4 mps 743 mmHg 97%
    07:00 +15°C° 0.6 mm 4 mps 743 mmHg 97%
    08:00 +14°C° 0.6 mm 4 mps 743 mmHg 96%
    09:00 +15°C° 0.4 mm 4 mps 744 mmHg 96%
    10:00 +15°C° 0.4 mm 4 mps 744 mmHg 95%
    11:00 +15°C° 0.4 mm 4 mps 744 mmHg 95%
    12:00 +15°C° 0.1 mm 4 mps 745 mmHg 95%
    13:00 +16°C° 0.1 mm 3 mps 745 mmHg 94%
    14:00 +16°C° 0.1 mm 3 mps 745 mmHg 93%
    15:00 +16°C° 0 mm 3 mps 745 mmHg 92%
    16:00 +17°C° 0 mm 3 mps 745 mmHg 90%
    17:00 +17°C° 0 mm 3 mps 745 mmHg 88%
    18:00 +17°C° 0 mm 3 mps 745 mmHg 87%
    19:00 +17°C° 0 mm 3 mps 745 mmHg 85%
    20:00 +17°C° 0 mm 4 mps 745 mmHg 83%
    21:00 +17°C° 0.1 mm 3 mps 745 mmHg 83%
    22:00 +16°C° 0.1 mm 3 mps 745 mmHg 83%
    23:00 +16°C° 0.1 mm 3 mps 745 mmHg 83%

    24 Julio, Miércoles

    Tiempo Temperatura Precipitaciones Viento Presión Humedad
    00:00 +14°C° 0 mm 3 mps 745 mmHg 85%
    01:00 +13°C° 0 mm 3 mps 745 mmHg 87%
    02:00 +13°C° 0 mm 3 mps 745 mmHg 89%
    03:00 +12°C° 0 mm 3 mps 745 mmHg 89%
    04:00 +12°C° 0 mm 3 mps 745 mmHg 88%
    05:00 +12°C° 0 mm 3 mps 745 mmHg 88%
    06:00 +14°C° 0 mm 4 mps 745 mmHg 83%
    07:00 +15°C° 0 mm 4 mps 746 mmHg 77%
    08:00 +17°C° 0 mm 5 mps 746 mmHg 71%
    09:00 +19°C° 0 mm 5 mps 746 mmHg 65%
    10:00 +20°C° 0 mm 5 mps 746 mmHg 58%
    11:00 +22°C° 0 mm 5 mps 746 mmHg 51%
    12:00 +22°C° 0 mm 5 mps 746 mmHg 51%
    13:00 +23°C° 0 mm 5 mps 746 mmHg 51%
    14:00 +25°C° 0 mm 5 mps 746 mmHg 51%
    15:00 +23°C° 0 mm 4 mps 746 mmHg 56%
    16:00 +23°C° 0 mm 4 mps 746 mmHg 60%
    17:00 +24°C° 0 mm 3 mps 745 mmHg 65%
    18:00 +21°C° 0.1 mm 3 mps 745 mmHg 69%
    19:00 +19°C° 0.1 mm 4 mps 745 mmHg 74%
    20:00 +18°C° 0.1 mm 4 mps 745 mmHg 78%
    21:00 +17°C° 0 mm 3 mps 745 mmHg 80%
    22:00 +16°C° 0 mm 3 mps 745 mmHg 83%
    23:00 +16°C° 0 mm 3 mps 745 mmHg 85%
    Mostrar más